Content
SEND FEEDBACK

Daily
Averages
Monthly
Summary
United States of America

WILMINGTON, NORTH CAROLINA


Home > North America > United States > North Carolina
Elevation: 72 feet     Latitude: 34 16N     Longitude: 077 54W

WEATHER
 
SELECT A DAY
Number of Records: 214,062;   Date Range: 1/1/95 - 12/17/14
 
SHARE

PRINT THIS DATA

[ ← Previous Day ]
WEATHER ALMANAC - JANUARY 3, 2013
[ Next Day → ]
[ °C ]   °F
Weather ElementAverageHighLow
Temperature41.7 °F44.1 °F (11:53 am)34 °F (11:53 pm)
Dewpoint37.5 °F41 °F (11:53 am)32 °F (11:53 pm)
Humidity84.9 %93 % (9:53 am)76 % (5:53 am)
Barometer30.19 in30.27 in (10:53 pm)30.14 in (3:53 am)
Wind Speed5.6 mph10.4 mph (3:53 am)
Weather ElementAverage
Visibility8.3 mi
Wind DirectionESE (121.9 °)

Weather ElementTotal
Precipitation0.09 in
Heating Degree Days26 (Base 65)
Averaged from 27 records on January 3, 2013
WEATHER CONDITIONS BREAKOUT
WIND DIRECTION BREAKOUT
WEATHER BY HOUR - JANUARY 3, 2013
[ °C ]   °F
Local TimeTemperatureDewpointHumidityBarometerVisibilityWind DirectionWind SpeedGust SpeedPrecipitationEventsConditions
1:06 AM42.8 °F39.2 °F87 %30.16 in10.0 miENE (60°)5.8 mphScattered Clouds
1:53 AM42.8 °F39.2 °F87 %30.15 in10.0 miNE (50°)6.9 mphClear
2:53 AM42.1 °F39.0 °F89 %30.15 in9.0 miNNE (30°)5.8 mphClear
3:53 AM42.1 °F37.9 °F85 %30.14 in8.0 miNNE (30°)10.4 mphMostly Cloudy
4:53 AM42.1 °F36.0 °F79 %30.15 in8.0 miNE (40°)6.9 mphOvercast
5:53 AM42.1 °F35.1 °F76 %30.16 in10.0 miNE (40°)5.8 mphOvercast
6:53 AM41.0 °F35.1 °F79 %30.18 in10.0 miNNE (30°)9.2 mphOvercast
7:53 AM41.0 °F35.1 °F79 %30.20 in8.0 miNNE (20°)8.1 mph0.00 inRainLight Rain
8:53 AM39.9 °F37.0 °F89 %30.19 in5.0 miEast (80°)4.6 mph0.03 inRainLight Rain
9:53 AM41.0 °F39.0 °F93 %30.21 in5.0 miCalm0.03 inRainLight Rain
10:53 AM43.0 °F39.9 °F89 %30.21 in5.0 miNNE (20°)5.8 mph0.01 inRainLight Rain
10:56 AM42.8 °F39.2 °F87 %30.21 in5.0 miNorth (10°)6.9 mph0.00 inRainLight Rain
11:53 AM44.1 °F41.0 °F89 %30.17 in5.0 miNNE (20°)8.1 mph0.01 inRainLight Rain
12:53 PM43.0 °F39.9 °F89 %30.16 in6.0 miNorth (10°)8.1 mph0.01 inRainLight Rain
1:53 PM43.0 °F39.9 °F89 %30.16 in9.0 miNorth (360°)6.9 mph0.00 inOvercast
2:53 PM43.0 °F39.0 °F86 %30.16 in10.0 miNorth (360°)9.2 mphOvercast
3:15 PM42.8 °F39.2 °F87 %30.18 in10.0 miNorth (360°)5.8 mphOvercast
3:53 PM43.0 °F39.0 °F86 %30.16 in10.0 miNNE (30°)3.5 mphOvercast
4:53 PM43.0 °F37.9 °F82 %30.17 in9.0 miNorth (350°)3.5 mphOvercast
5:53 PM42.1 °F37.9 °F85 %30.21 in8.0 miNNW (330°)5.8 mphOvercast
6:53 PM42.1 °F37.9 °F85 %30.22 in9.0 miNorth (10°)5.8 mphOvercast
7:53 PM42.1 °F36.0 °F79 %30.25 in10.0 miNorth (360°)5.8 mphOvercast
8:25 PM42.8 °F35.6 °F76 %30.24 in10.0 miNorth (350°)4.6 mphOvercast
8:53 PM42.1 °F35.1 °F76 %30.24 in10.0 miNorth (10°)4.6 mphOvercast
9:53 PM39.9 °F34.0 °F79 %30.26 in10.0 miNNW (330°)3.5 mphScattered Clouds
10:53 PM37.0 °F35.1 °F93 %30.27 in10.0 miCalmClear
11:53 PM34.0 °F32.0 °F92 %30.27 in5.0 miCalmClear
Hourly data recorded from KILM, located miles away from Wilmington, North Carolina







STORIES FROM OUR PARTNERS